Home   Weather   Township of Washington   Past weeks
Flag for USA

Past Weather in Township of Washington, Arkansas, USA — Yesterday and Last 2 Weeks

Now
75 °F

Mostly cloudy.


Feels Like: 75 °F
Forecast: 81 / 71 °F
Wind: 9 mph from Southwest

Location: Texarkana Regional-Webb Field

Current Time: Jul 15, 2019 at 1:42:28 pm

Latest Report: Jul 15, 2019 at 12:53 pm


Visibility: 10 mi

Pressure: 29.88 "Hg

Humidity: 82%

Dew Point: 69 °F

Location of Township of WashingtonLocation

Past Weather in Township of Washington — Graph

°F

Township of Washington Temperature Yesterday

Maximum temperature yesterday: 74 °F (at 12:53 am)
Minimum temperature yesterday: 69 °F (at 9:30 am)
Average temperature yesterday: 72 °F

High & Low Weather Summary for the Past Weeks

 TemperatureHumidityPressure
High93 °F (Jul 10, 3:53 pm)100% (Jul 7, 11:53 am)30.11 "Hg (Jul 7, 11:53 am)
Low69 °F (Jul 12, 5:53 am)48% (Jul 12, 1:53 pm)29.79 "Hg (Jul 14, 7:53 pm)
Average79 °F80%29.95 "Hg
* Reported Jun 30 12:53 pm — Jul 15 12:14 pm, Township of Washington. Weather by CustomWeather, © 2019

Note: Actual official high and low records may vary slightly from our data, if they occured in-between our weather recording intervals... More about our weather records

Advertising

Township of Washington Weather History for the Previous 24 Hours

Scroll right to see more
 ConditionsComfort  
Time TempWeatherWind HumidityBarometerVisibility
12:14 pm
Mon, Jul 15
76 °FOvercast.10 mph80%29.90 "Hg10 mi
11:53 am77 °FMostly cloudy.12 mph77%29.88 "Hg10 mi
11:43 am77 °FMostly cloudy.10 mph79%29.90 "Hg10 mi
11:11 am76 °FCloudy.10 mph82%29.90 "Hg10 mi
11:00 am76 °FMostly cloudy.9 mph85%29.90 "Hg10 mi
9:53 am71 °FLight rain. Fog.13 mph96%29.88 "Hg3 mi
8:53 am71 °FFog.10 mph96%29.87 "Hg4 mi
7:53 am71 °FLight rain. Fog.7 mph100%29.85 "Hg5 mi
7:28 am70 °FFog.8 mph100%29.86 "Hg2 mi
7:11 am70 °FFog.6 mph100%29.85 "Hg1 mi
7:01 am70 °FFog.8 mph100%29.85 "Hg2 mi
6:21 am70 °FFog.6 mph100%29.84 "Hg3 mi
5:53 am70 °FFog.9 mph100%29.82 "Hg2 mi
5:12 am70 °FFog.8 mph100%29.82 "Hg4 mi
4:53 am71 °FFog.6 mph96%29.80 "Hg2 mi
4:40 am71 °FLight rain. Fog.6 mph96%29.81 "Hg3 mi
3:53 am71 °FMostly cloudy.7 mph96%29.79 "Hg8 mi
3:24 am71 °FFog.6 mph96%29.80 "Hg3 mi
3:08 am71 °FFog.7 mph96%29.80 "Hg2 mi
2:30 am71 °FFog.7 mph100%29.81 "Hg2 mi
2:12 am71 °FFog.5 mph100%29.82 "Hg2 mi
1:53 am71 °FFog.3 mph96%29.80 "Hg1 mi
1:35 am71 °FFog.3 mph100%29.82 "Hg2 mi
1:23 am71 °FFog.3 mph96%29.82 "Hg2 mi
1:06 am71 °FFog.No wind100%29.81 "Hg2 mi
11:53 pm
Sun, Jul 14
71 °FFog.5 mph96%29.80 "Hg2 mi
11:27 pm71 °FFog.3 mph96%29.82 "Hg2 mi
11:03 pm71 °FFog.5 mph96%29.81 "Hg2 mi
10:53 pm71 °FFog.6 mph96%29.80 "Hg2 mi
9:53 pm71 °FFog.6 mph96%29.80 "Hg2 mi
9:11 pm71 °FFog.6 mph96%29.81 "Hg2 mi
8:53 pm72 °FFog.8 mph93%29.80 "Hg3 mi
7:53 pm72 °FFog.7 mph97%29.79 "Hg2 mi
6:53 pm72 °FLight rain. Fog.8 mph97%29.79 "Hg2 mi
6:39 pm72 °FLight rain. Fog.12 mph97%29.81 "Hg2 mi
6:00 pm73 °FFog.8 mph94%29.81 "Hg3 mi
5:41 pm73 °FFog.8 mph94%29.81 "Hg4 mi
5:27 pm73 °FFog.8 mph94%29.81 "Hg2 mi
5:04 pm73 °FOvercast.10 mph94%29.81 "Hg7 mi
4:53 pm73 °FLow clouds.9 mph94%29.80 "Hg8 mi
3:53 pm73 °FLight rain. Fog.9 mph90%29.81 "Hg6 mi
2:53 pm72 °FLight rain. Fog.13 mph93%29.82 "Hg3 mi
2:15 pm72 °FLight rain. Fog.12 mph97%29.84 "Hg2 mi
1:53 pm72 °FLight rain. Fog.9 mph93%29.83 "Hg2 mi
1:11 pm71 °FRain. Fog.10 mph96%29.86 "Hg1 mi
Weather by CustomWeather, © 2019

See weather overview